• In Austria
  • List of Countries
  • For 7 days
  • Water Temperature
  • Satellite Maps
  • Weather Map
  • News
  • Weather Widgets
  • user-avatar
    Login

    Hourly Weather Brussels

    Today, 20 September, Thursday

    Time Temperature Precipitation Wind Pressure Humidity
    00:00 +18°C° 0 mm 3 mps 760 mmHg 78%
    01:00 +18°C° 0 mm 3 mps 760 mmHg 79%
    02:00 +17°C° 0 mm 3 mps 760 mmHg 81%
    03:00 +17°C° 0 mm 3 mps 760 mmHg 83%
    04:00 +17°C° 0 mm 3 mps 760 mmHg 84%
    05:00 +17°C° 0 mm 4 mps 760 mmHg 86%
    06:00 +15°C° 0 mm 4 mps 759 mmHg 87%
    07:00 +18°C° 0 mm 4 mps 759 mmHg 81%
    08:00 +19°C° 0 mm 5 mps 759 mmHg 75%
    09:00 +21°C° 0 mm 6 mps 759 mmHg 70%
    10:00 +22°C° 0 mm 6 mps 759 mmHg 66%
    11:00 +23°C° 0 mm 6 mps 759 mmHg 62%
    12:00 +24°C° 0 mm 6 mps 759 mmHg 58%
    13:00 +24°C° 0 mm 6 mps 758 mmHg 57%
    14:00 +26°C° 0 mm 6 mps 757 mmHg 55%
    15:00 +26°C° 0 mm 6 mps 757 mmHg 54%
    16:00 +25°C° 0 mm 5 mps 756 mmHg 58%
    17:00 +23°C° 0 mm 5 mps 756 mmHg 62%
    18:00 +21°C° 0 mm 4 mps 755 mmHg 66%
    19:00 +21°C° 0 mm 4 mps 755 mmHg 63%
    20:00 +21°C° 0 mm 5 mps 755 mmHg 61%
    21:00 +21°C° 0 mm 6 mps 754 mmHg 58%
    22:00 +21°C° 0 mm 6 mps 754 mmHg 58%
    23:00 +21°C° 0 mm 6 mps 753 mmHg 58%

    Tomorrow, 21 September, Friday

    Time Temperature Precipitation Wind Pressure Humidity
    00:00 +21°C° 0 mm 6 mps 752 mmHg 58%
    01:00 +21°C° 0 mm 7 mps 752 mmHg 60%
    02:00 +21°C° 0 mm 7 mps 751 mmHg 62%
    03:00 +20°C° 0 mm 8 mps 750 mmHg 64%
    04:00 +19°C° 0.9 mm 9 mps 750 mmHg 68%
    05:00 +18°C° 0.9 mm 9 mps 750 mmHg 73%
    06:00 +17°C° 0.9 mm 10 mps 750 mmHg 78%
    07:00 +17°C° 0.9 mm 10 mps 751 mmHg 74%
    08:00 +16°C° 0.9 mm 9 mps 752 mmHg 71%
    09:00 +15°C° 0.9 mm 8 mps 753 mmHg 67%
    10:00 +15°C° 0 mm 8 mps 754 mmHg 61%
    11:00 +16°C° 0 mm 8 mps 755 mmHg 55%
    12:00 +17°C° 0 mm 9 mps 756 mmHg 50%
    13:00 +17°C° 0 mm 9 mps 756 mmHg 48%
    14:00 +16°C° 0 mm 8 mps 757 mmHg 46%
    15:00 +16°C° 0 mm 8 mps 757 mmHg 45%
    16:00 +15°C° 0 mm 8 mps 758 mmHg 48%
    17:00 +14°C° 0 mm 7 mps 758 mmHg 52%
    18:00 +13°C° 0 mm 6 mps 759 mmHg 56%
    19:00 +13°C° 0 mm 6 mps 759 mmHg 58%
    20:00 +13°C° 0 mm 6 mps 760 mmHg 60%
    21:00 +13°C° 0 mm 6 mps 760 mmHg 63%
    22:00 +12°C° 0 mm 5 mps 761 mmHg 65%
    23:00 +12°C° 0 mm 5 mps 761 mmHg 67%

    Day after tomorrow, 22 September, Saturday

    Time Temperature Precipitation Wind Pressure Humidity
    00:00 +12°C° 0 mm 5 mps 761 mmHg 69%
    01:00 +10°C° 0 mm 5 mps 761 mmHg 71%
    02:00 +11°C° 0 mm 4 mps 762 mmHg 72%
    03:00 +11°C° 0 mm 4 mps 762 mmHg 74%
    04:00 +11°C° 0 mm 4 mps 762 mmHg 76%
    05:00 +11°C° 0 mm 4 mps 762 mmHg 77%
    06:00 +10°C° 0 mm 4 mps 763 mmHg 79%
    07:00 +12°C° 0 mm 4 mps 763 mmHg 73%
    08:00 +13°C° 0 mm 5 mps 763 mmHg 68%
    09:00 +15°C° 0 mm 5 mps 763 mmHg 62%
    10:00 +15°C° 0 mm 5 mps 763 mmHg 60%
    11:00 +16°C° 0 mm 5 mps 763 mmHg 57%
    12:00 +17°C° 0 mm 5 mps 763 mmHg 54%
    13:00 +16°C° 0.1 mm 5 mps 763 mmHg 56%
    14:00 +17°C° 0.1 mm 4 mps 763 mmHg 59%
    15:00 +15°C° 0.1 mm 4 mps 763 mmHg 62%
    16:00 +14°C° 0 mm 3 mps 763 mmHg 65%
    17:00 +15°C° 0 mm 2 mps 762 mmHg 69%
    18:00 +14°C° 0 mm 2 mps 762 mmHg 72%
    19:00 +13°C° 0.4 mm 2 mps 762 mmHg 77%
    20:00 +13°C° 0.4 mm 2 mps 762 mmHg 81%
    21:00 +12°C° 0.4 mm 3 mps 762 mmHg 86%
    22:00 +12°C° 0.7 mm 3 mps 760 mmHg 86%
    23:00 +12°C° 0.7 mm 4 mps 759 mmHg 86%

    23 September, Sunday

    Time Temperature Precipitation Wind Pressure Humidity
    00:00 +12°C° 0.7 mm 5 mps 758 mmHg 86%
    01:00 +12°C° 0.7 mm 5 mps 757 mmHg 86%
    02:00 +13°C° 0.7 mm 6 mps 756 mmHg 85%
    03:00 +13°C° 0.7 mm 6 mps 755 mmHg 85%
    04:00 +15°C° 0.8 mm 7 mps 754 mmHg 88%
    05:00 +17°C° 0.8 mm 7 mps 754 mmHg 90%
    06:00 +18°C° 0.8 mm 8 mps 753 mmHg 93%
    07:00 +20°C° 0.4 mm 8 mps 752 mmHg 92%
    08:00 +19°C° 0.4 mm 9 mps 751 mmHg 91%
    09:00 +21°C° 0.4 mm 10 mps 751 mmHg 90%
    10:00 +21°C° 0.9 mm 10 mps 750 mmHg 89%
    11:00 +21°C° 0.9 mm 10 mps 750 mmHg 88%
    12:00 +21°C° 0.9 mm 11 mps 749 mmHg 87%
    13:00 +19°C° 3 mm 10 mps 749 mmHg 86%
    14:00 +18°C° 3 mm 10 mps 748 mmHg 85%
    15:00 +17°C° 3 mm 10 mps 748 mmHg 84%
    16:00 +14°C° 2.2 mm 10 mps 750 mmHg 84%
    17:00 +13°C° 2.2 mm 9 mps 751 mmHg 84%
    18:00 +11°C° 2.2 mm 8 mps 753 mmHg 84%
    19:00 +11°C° 0.2 mm 7 mps 756 mmHg 83%
    20:00 +10°C° 0.2 mm 6 mps 758 mmHg 83%
    21:00 +10°C° 0.2 mm 5 mps 761 mmHg 83%
    22:00 +10°C° 0.1 mm 5 mps 762 mmHg 82%
    23:00 +10°C° 0.1 mm 4 mps 763 mmHg 80%

    24 September, Monday

    Time Temperature Precipitation Wind Pressure Humidity
    00:00 +10°C° 0.1 mm 4 mps 765 mmHg 79%
    01:00 +10°C° 0 mm 4 mps 765 mmHg 79%
    02:00 +9°C° 0 mm 3 mps 766 mmHg 80%
    03:00 +9°C° 0 mm 3 mps 767 mmHg 81%
    04:00 +9°C° 0.1 mm 3 mps 768 mmHg 81%
    05:00 +9°C° 0.1 mm 3 mps 769 mmHg 81%
    06:00 +10°C° 0.1 mm 2 mps 769 mmHg 81%
    07:00 +11°C° 0.1 mm 3 mps 770 mmHg 75%
    08:00 +12°C° 0.1 mm 4 mps 771 mmHg 69%
    09:00 +13°C° 0.1 mm 4 mps 771 mmHg 63%
    10:00 +14°C° 0.1 mm 4 mps 771 mmHg 60%
    11:00 +14°C° 0.1 mm 4 mps 771 mmHg 57%
    12:00 +15°C° 0.1 mm 5 mps 772 mmHg 54%
    13:00 +15°C° 0.1 mm 5 mps 772 mmHg 55%
    14:00 +14°C° 0.1 mm 5 mps 772 mmHg 56%
    15:00 +14°C° 0.1 mm 5 mps 772 mmHg 57%
    16:00 +13°C° 0 mm 4 mps 772 mmHg 60%
    17:00 +11°C° 0 mm 3 mps 772 mmHg 63%
    18:00 +10°C° 0 mm 2 mps 773 mmHg 67%
    19:00 +9°C° 0 mm 2 mps 773 mmHg 67%
    20:00 +10°C° 0 mm 1 mps 774 mmHg 68%
    21:00 +9°C° 0 mm 1 mps 774 mmHg 69%
    22:00 +9°C° 0 mm 1 mps 774 mmHg 69%
    23:00 +9°C° 0 mm 1 mps 774 mmHg 70%

    25 September, Tuesday

    Time Temperature Precipitation Wind Pressure Humidity
    00:00 +9°C° 0 mm 1 mps 774 mmHg 70%
    01:00 +9°C° 0 mm 1 mps 774 mmHg 71%
    02:00 +7°C° 0 mm 2 mps 774 mmHg 71%
    03:00 +7°C° 0 mm 2 mps 774 mmHg 72%
    04:00 +7°C° 0 mm 2 mps 774 mmHg 72%
    05:00 +7°C° 0 mm 2 mps 774 mmHg 73%
    06:00 +7°C° 0 mm 2 mps 774 mmHg 73%
    07:00 +9°C° 0 mm 2 mps 774 mmHg 69%
    08:00 +12°C° 0 mm 2 mps 774 mmHg 65%
    09:00 +13°C° 0 mm 3 mps 774 mmHg 61%
    10:00 +14°C° 0 mm 3 mps 774 mmHg 59%
    11:00 +16°C° 0 mm 3 mps 774 mmHg 56%
    12:00 +17°C° 0 mm 3 mps 774 mmHg 53%
    13:00 +17°C° 0 mm 3 mps 773 mmHg 54%
    14:00 +17°C° 0 mm 3 mps 773 mmHg 55%
    15:00 +17°C° 0 mm 2 mps 773 mmHg 55%
    16:00 +15°C° 0 mm 2 mps 773 mmHg 61%
    17:00 +14°C° 0 mm 2 mps 772 mmHg 68%
    18:00 +12°C° 0 mm 1 mps 772 mmHg 74%
    19:00 +12°C° 0 mm 1 mps 773 mmHg 77%
    20:00 +11°C° 0 mm 1 mps 773 mmHg 80%
    21:00 +11°C° 0 mm 1 mps 773 mmHg 83%
    22:00 +10°C° 0 mm 1 mps 773 mmHg 84%
    23:00 +10°C° 0 mm 1 mps 773 mmHg 85%
    Show more